QPF
0.00 0.00 0.00 0.00 0.01 0.01 0.00 0.00 0.00 0.00 0.00 0.00 0.00 0.00 0.00 0.00 0.00 0.00 0.00 0.00 0.00 0.00 0.00 0.00 0.00 0.02 0.02 0.01 0.00 0.00 0.00 0.00 0.00 0.00 0.00 0.00 0.00 0.00 0.00 0.00 0.00 0.00 0.00
0.00 0.00 0.00 0.00 0.00 0.00 0.00 0.00 0.00 0.00 0.00 0.00 0.00 0.00 0.00 0.00 0.00 0.00 0.00 0.00 0.00 0.00 0.00 0.00 0.00 0.01 0.00 0.00 0.00 0.00 0.00 0.00 0.00 0.00 0.00 0.00 0.00 0.00 0.00 0.00 0.00 0.00 0.00
0.00 0.00 0.00 0.00 0.00 0.00 0.00 0.00 0.00 0.00 0.00 0.00 0.00 0.00 0.00 0.00 0.00 0.00 0.00 0.00 0.00 0.00 0.00 0.00 0.00 0.00 0.00 0.00 0.00 0.00 0.00 0.00 0.00 0.00 0.00 0.00 0.00 0.00 0.00 0.00 0.00 0.00 0.00
0.00 0.00 0.00 0.00 0.00 0.00 0.00 0.00 0.00 0.00 0.00 0.00 0.00 0.00 0.00 0.00 0.00 0.00 0.00 0.00 0.00 0.00 0.00 0.00 0.00 0.00 0.00 0.00 0.00 0.00 0.00 0.00 0.00 0.00 0.00 0.00 0.00 0.00 0.00 0.00 0.00 0.00 0.00
0.00 0.00 0.00 0.00 0.00 0.00 0.00 0.00 0.00 0.00 0.00 0.00 0.00 0.00 0.00 0.00 0.00 0.00 0.00 0.00 0.00 0.00 0.00 0.00 0.00 0.00 0.00 0.00 0.00 0.00 0.00 0.00 0.00 0.00 0.00 0.00 0.00 0.00 0.00 0.00 0.01 0.00 0.00
0.00 0.00 0.00 0.00 0.00 0.00 0.00 0.00 0.00 0.00 0.00 0.00 0.00 0.00 0.00 0.01 0.01 0.00 0.00 0.00 0.00 0.00 0.00 0.00 0.00 0.00 0.00 0.00 0.00 0.00 0.00 0.00 0.00 0.00 0.00 0.00 0.00 0.00 0.00 0.00 0.00 0.00 0.00
0.00 0.00 0.00 0.00 0.00 0.01 0.00 0.00 0.00 0.00 0.00 0.00 0.00 0.00 0.00 0.00 0.01 0.00 0.00 0.00 0.00 0.00 0.00 0.00 0.00 0.00 0.00 0.00 0.00 0.00 0.00 0.00 0.00 0.00 0.00 0.00 0.00 0.00 0.00 0.00 0.00 0.00 0.00
0.00 0.00 0.00 0.00 0.00 0.01 0.00 0.00 0.00 0.00 0.00 0.00 0.00 0.00 0.00 0.00 0.01 0.00 0.00 0.00 0.00 0.00 0.00 0.00 0.00 0.00 0.00 0.00 0.00 0.00 0.00 0.00 0.00 0.00 0.00 0.00 0.00 0.00 0.00 0.00 0.00 0.00 0.00
0.00 0.00 0.00 0.00 0.00 0.00 0.00 0.00 0.00 0.00 0.00 0.00 0.00 0.00 0.00 0.00 0.00 0.00 0.00 0.00 0.00 0.00 0.00 0.00 0.00 0.00 0.00 0.00 0.00 0.00 0.00 0.00 0.00 0.00 0.00 0.00 0.00 0.00 0.00 0.00 0.00 0.00 0.00
0.00 0.00 0.00 0.00 0.00 0.00 0.00 0.00 0.00 0.00 0.00 0.00 0.00 0.00 0.00 0.00 0.00 0.00 0.00 0.00 0.00 0.00 0.00 0.00 0.00 0.00 0.00 0.00 0.00 0.00 0.00 0.00 0.00 0.00 0.00 0.00 0.00 0.00 0.00 0.00 0.00 0.00 0.00
0.00 0.00 0.00 0.00 0.00 0.00 0.00 0.00 0.00 0.00 0.00 0.00 0.00 0.00 0.00 0.00 0.00 0.00 0.00 0.00 0.00 0.00 0.00 0.00 0.00 0.00 0.00 0.00 0.00 0.00 0.00 0.00 0.00 0.00 0.00 0.00 0.00 0.00 0.01 0.01 0.00 0.00 0.00
0.00 0.00 0.00 0.00 0.00 0.00 0.00 0.00 0.00 0.00 0.00 0.00 0.00 0.00 0.00 0.00 0.00 0.00 0.00 0.00 0.00 0.00 0.00 0.00 0.00 0.00 0.00 0.00 0.00 0.00 0.00 0.00 0.00 0.00 0.00 0.00 0.00 0.00 0.01 0.02 0.03 0.03 0.01
0.00 0.00 0.00 0.00 0.00 0.00 0.00 0.00 0.00 0.00 0.00 0.00 0.00 0.00 0.00 0.00 0.00 0.00 0.00 0.00 0.00 0.00 0.00 0.00 0.00 0.00 0.00 0.00 0.00 0.00 0.00 0.00 0.00 0.00 0.00 0.00 0.00 0.00 0.00 0.01 0.01 0.02 0.01
0.00 0.00 0.00 0.00 0.00 0.00 0.00 0.00 0.00 0.00 0.00 0.00 0.00 0.00 0.00 0.00 0.00 0.00 0.00 0.00 0.00 0.00 0.00 0.00 0.00 0.00 0.00 0.00 0.00 0.00 0.00 0.00 0.00 0.00 0.00 0.00 0.00 0.00 0.00 0.00 0.00 0.00 0.00
0.00 0.00 0.00 0.00 0.00 0.00 0.00 0.00 0.00 0.00 0.00 0.00 0.00 0.00 0.00 0.00 0.00 0.00 0.00 0.00 0.00 0.00 0.00 0.00 0.00 0.00 0.00 0.00 0.00 0.00 0.00 0.00 0.00 0.00 0.00 0.00 0.00 0.00 0.00 0.00 0.00 0.00 0.00
0.00 0.00 0.00 0.00 0.00 0.00 0.00 0.00 0.00 0.00 0.00 0.00 0.00 0.00 0.00 0.00 0.00 0.00 0.00 0.00 0.00 0.00 0.00 0.00 0.00 0.00 0.00 0.00 0.00 0.00 0.00 0.00 0.00 0.00 0.00 0.00 0.00 0.00 0.00 0.00 0.00 0.00 0.00
0.00 0.00 0.00 0.00 0.00 0.00 0.00 0.00 0.00 0.00 0.00 0.00 0.00 0.00 0.00 0.00 0.00 0.00 0.00 0.00 0.00 0.00 0.00 0.00 0.00 0.00 0.00 0.00 0.00 0.00 0.00 0.00 0.00 0.00 0.00 0.00 0.00 0.00 0.00 0.00 0.00 0.00 0.00
0.00 0.00 0.00 0.00 0.00 0.00 0.00 0.00 0.00 0.00 0.00 0.00 0.00 0.00 0.00 0.00 0.00 0.00 0.00 0.00 0.00 0.00 0.00 0.00 0.00 0.00 0.00 0.00 0.00 0.00 0.00 0.00 0.00 0.00 0.00 0.00 0.00 0.00 0.00 0.00 0.00 0.00 0.00
0.00 0.00 0.00 0.00 0.00 0.00 0.00 0.00 0.00 0.00 0.00 0.00 0.00 0.00 0.00 0.00 0.00 0.00 0.00 0.00 0.00 0.00 0.00 0.00 0.00 0.00 0.00 0.00 0.00 0.00 0.00 0.00 0.00 0.00 0.00 0.00 0.00 0.00 0.00 0.00 0.00 0.00 0.00
0.00 0.00 0.00 0.00 0.00 0.00 0.00 0.00 0.00 0.00 0.00 0.00 0.00 0.00 0.00 0.00 0.00 0.00 0.00 0.00 0.00 0.00 0.00 0.00 0.00 0.00 0.00 0.00 0.00 0.00 0.00 0.00 0.00 0.00 0.00 0.00 0.00 0.00 0.00 0.00 0.00 0.00 0.00
0.00 0.00 0.00 0.00 0.00 0.00 0.00 0.00 0.00 0.00 0.00 0.00 0.00 0.00 0.00 0.00 0.00 0.00 0.00 0.00 0.00 0.00 0.00 0.00 0.00 0.00 0.00 0.00 0.00 0.00 0.00 0.00 0.00 0.00 0.00 0.00 0.00 0.00 0.00 0.00 0.00 0.00 0.00
0.00 0.00 0.00 0.00 0.00 0.00 0.00 0.00 0.00 0.00 0.00 0.00 0.00 0.00 0.00 0.00 0.00 0.00 0.00 0.00 0.00 0.00 0.00 0.00 0.00 0.00 0.00 0.00 0.00 0.00 0.00 0.00 0.00 0.00 0.00 0.00 0.00 0.00 0.00 0.00 0.00 0.00 0.00
0.00 0.00 0.00 0.00 0.00 0.00 0.00 0.00 0.00 0.00 0.00 0.00 0.00 0.00 0.00 0.00 0.00 0.00 0.00 0.00 0.00 0.00 0.00 0.00 0.00 0.00 0.00 0.00 0.00 0.00 0.00 0.00 0.00 0.00 0.00 0.00 0.00 0.00 0.00 0.00 0.00 0.00 0.00
0.00 0.00 0.00 0.00 0.00 0.00 0.00 0.00 0.00 0.00 0.00 0.00 0.00 0.00 0.00 0.00 0.00 0.00 0.00 0.00 0.00 0.00 0.00 0.00 0.00 0.00 0.00 0.00 0.00 0.00 0.00 0.00 0.00 0.00 0.00 0.00 0.00 0.00 0.00 0.00 0.00 0.00 0.00
0.00 0.00 0.00 0.00 0.00 0.00 0.00 0.00 0.00 0.00 0.00 0.00 0.00 0.00 0.00 0.00 0.00 0.00 0.00 0.00 0.00 0.00 0.00 0.00 0.00 0.00 0.00 0.00 0.00 0.00 0.00 0.00 0.00 0.00 0.00 0.00 0.00 0.00 0.00 0.00 0.00 0.00 0.00
0.00 0.00 0.00 0.00 0.00 0.00 0.00 0.00 0.00 0.00 0.00 0.00 0.00 0.00 0.00 0.00 0.00 0.00 0.00 0.00 0.00 0.00 0.00 0.00 0.00 0.00 0.00 0.00 0.00 0.00 0.00 0.00 0.00 0.00 0.00 0.00 0.00 0.00 0.00 0.00 0.00 0.00 0.00
MSLP
1009.76 1009.56 1009.60 1009.91 1010.15 1010.49 1010.83 1011.20 1011.60 1011.83 1011.92 1012.03 1012.10 1012.14 1012.23 1012.41 1012.59 1012.69 1012.95 1013.09 1013.15 1013.26 1013.09 1013.03 1012.98 1012.92 1013.03 1013.27 1013.29 1013.53 1013.60 1013.71 1013.93 1014.03 1014.08 1014.16 1014.01 1013.98 1013.75 1013.71 1013.76 1013.86 1013.60
1008.74 1009.32 1009.57 1009.91 1010.23 1010.61 1010.89 1011.21 1011.56 1011.91 1012.07 1012.19 1012.32 1012.37 1012.47 1012.51 1012.68 1012.84 1012.97 1013.01 1013.15 1013.33 1013.32 1013.31 1013.29 1013.29 1013.24 1013.42 1013.60 1013.61 1013.69 1013.78 1013.89 1014.02 1014.10 1014.13 1014.09 1014.00 1013.78 1013.72 1013.70 1013.85 1013.62
1008.96 1009.27 1009.60 1009.98 1010.34 1010.67 1011.00 1011.29 1011.56 1011.87 1012.18 1012.23 1012.42 1012.56 1012.57 1012.68 1012.83 1012.94 1012.95 1013.05 1013.17 1013.40 1013.51 1013.66 1013.70 1013.72 1013.63 1013.77 1013.83 1013.83 1013.93 1014.00 1014.06 1014.12 1014.11 1014.21 1014.16 1013.84 1013.45 1013.54 1013.67 1013.62 1013.53
1008.97 1009.32 1009.70 1010.02 1010.37 1010.64 1011.08 1011.46 1011.65 1011.79 1012.12 1012.32 1012.43 1012.59 1012.62 1012.65 1012.85 1013.02 1013.16 1013.27 1013.47 1013.61 1013.69 1013.75 1013.87 1014.00 1013.98 1013.96 1014.03 1014.03 1014.09 1014.09 1014.12 1014.09 1014.29 1014.20 1014.14 1013.83 1013.41 1013.40 1013.41 1013.45 1013.44
1009.20 1009.35 1009.67 1009.99 1010.37 1010.62 1011.02 1011.42 1011.65 1011.89 1012.12 1012.34 1012.48 1012.63 1012.55 1012.58 1012.86 1013.05 1013.37 1013.43 1013.70 1013.81 1013.83 1013.80 1013.91 1014.06 1014.17 1014.09 1014.13 1014.17 1014.11 1014.11 1014.09 1014.14 1014.25 1014.24 1014.15 1013.88 1013.52 1013.10 1013.14 1013.25 1013.38
1009.28 1009.38 1009.72 1009.97 1010.35 1010.68 1010.97 1011.32 1011.58 1011.88 1012.17 1012.47 1012.57 1012.67 1012.75 1012.78 1012.85 1013.07 1013.31 1013.52 1013.75 1013.96 1013.93 1013.84 1013.95 1013.97 1014.14 1014.21 1014.11 1014.13 1014.06 1014.06 1014.13 1014.28 1014.21 1014.23 1013.98 1013.84 1013.47 1013.23 1013.02 1013.13 1013.13
1009.46 1009.48 1009.68 1010.03 1010.34 1010.69 1011.10 1011.41 1011.58 1011.95 1012.15 1012.40 1012.70 1012.79 1012.77 1012.80 1012.79 1012.96 1013.30 1013.58 1013.75 1013.95 1013.93 1013.85 1013.94 1013.92 1014.07 1014.07 1013.97 1013.94 1013.98 1013.98 1014.03 1014.21 1014.12 1014.13 1013.95 1013.58 1013.26 1013.10 1012.86 1012.70 1012.80
1009.34 1009.60 1009.77 1010.01 1010.33 1010.64 1011.01 1011.32 1011.65 1011.97 1012.20 1012.32 1012.65 1012.81 1012.74 1012.72 1012.75 1012.95 1013.34 1013.56 1013.77 1013.88 1013.84 1013.75 1013.85 1013.79 1013.91 1013.85 1013.78 1013.68 1013.66 1013.81 1013.85 1013.97 1013.91 1013.85 1013.64 1013.29 1012.98 1012.82 1012.74 1012.54 1012.47
1009.43 1009.70 1009.80 1010.03 1010.30 1010.60 1010.97 1011.29 1011.61 1011.88 1012.09 1012.29 1012.60 1012.65 1012.74 1012.80 1012.88 1013.00 1013.28 1013.43 1013.65 1013.71 1013.68 1013.62 1013.71 1013.67 1013.69 1013.75 1013.71 1013.61 1013.61 1013.65 1013.64 1013.65 1013.51 1013.40 1013.26 1012.98 1012.71 1012.53 1012.44 1012.26 1012.04
1009.52 1009.75 1009.93 1009.96 1010.25 1010.57 1010.93 1011.24 1011.55 1011.91 1012.04 1012.20 1012.49 1012.66 1012.78 1012.97 1013.03 1013.17 1013.26 1013.35 1013.46 1013.64 1013.62 1013.64 1013.65 1013.60 1013.64 1013.70 1013.63 1013.53 1013.51 1013.46 1013.48 1013.39 1013.20 1013.03 1012.81 1012.54 1012.29 1012.14 1012.01 1011.83 1011.67
1009.83 1009.84 1009.97 1010.07 1010.21 1010.52 1010.88 1011.21 1011.51 1011.82 1012.14 1012.25 1012.38 1012.76 1012.84 1013.21 1013.26 1013.45 1013.39 1013.46 1013.46 1013.59 1013.53 1013.50 1013.55 1013.51 1013.57 1013.62 1013.51 1013.48 1013.45 1013.47 1013.43 1013.29 1013.07 1012.72 1012.45 1012.11 1011.86 1011.69 1011.50 1011.38 1011.29
1009.72 1009.68 1010.00 1010.01 1010.29 1010.49 1010.77 1011.19 1011.48 1011.83 1012.16 1012.28 1012.51 1012.79 1013.08 1013.23 1013.30 1013.40 1013.41 1013.45 1013.41 1013.50 1013.45 1013.47 1013.46 1013.49 1013.53 1013.66 1013.51 1013.46 1013.40 1013.30 1013.25 1013.04 1012.79 1012.51 1012.21 1011.76 1011.38 1011.15 1011.13 1011.05 1010.88
1009.05 1009.54 1009.67 1009.83 1009.98 1010.42 1010.79 1011.12 1011.49 1011.89 1012.07 1012.31 1012.44 1012.78 1013.08 1013.13 1013.38 1013.62 1013.55 1013.50 1013.50 1013.55 1013.64 1013.62 1013.66 1013.73 1013.73 1013.63 1013.44 1013.42 1013.32 1013.17 1013.11 1013.00 1012.77 1012.46 1012.12 1011.76 1011.41 1011.10 1010.93 1010.75 1010.54
1008.86 1008.78 1009.14 1009.48 1009.84 1010.24 1010.53 1010.87 1011.31 1011.70 1012.05 1012.19 1012.44 1012.75 1013.04 1013.26 1013.52 1013.62 1013.75 1013.57 1013.59 1013.54 1013.70 1013.70 1013.68 1013.60 1013.52 1013.41 1013.41 1013.43 1013.49 1013.37 1013.26 1013.12 1012.89 1012.58 1012.28 1011.92 1011.55 1011.19 1010.93 1010.67 1010.42
1008.45 1008.35 1008.54 1009.15 1009.43 1009.88 1010.35 1010.73 1011.14 1011.55 1011.70 1012.02 1012.36 1012.53 1012.87 1013.29 1013.49 1013.66 1013.72 1013.66 1013.52 1013.35 1013.37 1013.54 1013.64 1013.79 1013.87 1013.84 1013.83 1013.85 1013.71 1013.57 1013.43 1013.29 1013.12 1012.84 1012.53 1012.22 1011.82 1011.49 1011.19 1010.90 1010.62
1007.36 1007.53 1007.77 1008.38 1008.91 1009.47 1009.94 1010.28 1010.68 1011.04 1011.31 1011.86 1012.02 1012.21 1012.66 1013.03 1013.37 1013.77 1013.95 1013.84 1013.74 1013.54 1013.73 1013.99 1014.20 1014.27 1014.43 1014.43 1014.24 1014.04 1013.96 1013.82 1013.61 1013.38 1013.24 1013.11 1012.79 1012.56 1012.17 1011.77 1011.54 1011.24 1011.11
1006.86 1007.10 1007.39 1007.66 1008.33 1009.00 1009.42 1009.88 1010.32 1010.66 1011.21 1011.58 1011.77 1012.04 1012.62 1013.03 1013.51 1013.67 1014.03 1014.29 1014.07 1013.99 1014.19 1014.52 1014.70 1014.80 1014.78 1014.70 1014.48 1014.19 1013.93 1013.84 1013.66 1013.51 1013.43 1013.27 1013.12 1012.88 1012.59 1012.32 1012.10 1011.86 1011.63
1006.93 1006.94 1006.93 1007.20 1007.97 1008.64 1009.22 1009.84 1010.40 1010.60 1011.08 1011.62 1012.15 1012.29 1012.94 1013.05 1013.38 1013.66 1014.31 1014.56 1014.63 1014.59 1014.87 1015.11 1015.07 1015.11 1015.13 1015.06 1014.80 1014.32 1014.10 1013.98 1013.84 1013.73 1013.64 1013.51 1013.38 1013.33 1013.15 1012.79 1012.64 1012.43 1012.09
1007.04 1007.07 1007.23 1007.30 1007.75 1008.54 1009.19 1009.88 1010.51 1010.86 1011.45 1011.98 1012.57 1012.74 1013.17 1013.53 1013.69 1014.38 1015.02 1015.16 1015.10 1015.07 1015.32 1015.54 1015.53 1015.62 1015.86 1015.59 1015.05 1014.53 1014.19 1014.14 1014.04 1013.84 1013.86 1013.67 1013.57 1013.53 1013.42 1013.21 1013.07 1012.84 1012.41
1007.28 1007.27 1007.32 1007.71 1008.13 1008.74 1009.44 1010.16 1010.90 1011.51 1012.15 1012.73 1013.13 1013.51 1013.80 1014.05 1014.17 1014.97 1015.42 1015.49 1015.31 1015.54 1015.82 1015.93 1016.09 1016.21 1016.30 1016.16 1015.32 1014.81 1014.35 1014.21 1014.16 1014.17 1014.06 1013.86 1013.77 1013.66 1013.53 1013.47 1013.29 1012.98 1012.57
1007.53 1007.55 1007.72 1008.13 1008.62 1008.69 1009.55 1010.40 1011.30 1012.13 1012.70 1013.27 1013.61 1014.13 1014.06 1014.43 1014.90 1015.44 1015.73 1015.83 1015.80 1015.99 1016.42 1016.54 1016.53 1016.73 1016.55 1016.27 1015.86 1015.22 1014.50 1014.39 1014.35 1014.21 1014.10 1014.11 1013.83 1013.55 1013.56 1013.38 1013.10 1012.82 1012.44
1007.59 1007.82 1008.09 1008.37 1008.69 1008.97 1009.48 1010.30 1011.07 1012.10 1013.10 1013.66 1014.23 1014.52 1014.60 1014.98 1015.41 1015.83 1016.18 1016.34 1016.41 1016.57 1016.79 1017.00 1017.09 1017.20 1017.15 1016.97 1017.11 1016.75 1016.19 1015.21 1014.61 1013.94 1013.97 1013.97 1013.88 1013.81 1013.60 1013.31 1013.09 1012.71 1012.43
1007.75 1007.94 1008.19 1008.49 1008.89 1009.33 1009.75 1010.46 1011.65 1012.52 1013.51 1014.19 1014.74 1014.93 1015.36 1015.46 1015.85 1016.19 1016.45 1016.66 1016.89 1017.03 1017.32 1017.40 1017.40 1017.61 1017.81 1017.51 1017.45 1017.57 1017.24 1017.08 1016.25 1014.62 1014.23 1014.21 1014.05 1014.06 1013.78 1013.37 1012.96 1012.52 1012.23
1007.75 1007.97 1008.36 1008.70 1009.17 1009.60 1009.89 1010.48 1011.13 1012.03 1013.30 1014.50 1014.93 1015.40 1015.79 1015.96 1016.39 1016.60 1016.83 1017.08 1017.26 1017.47 1017.53 1017.62 1017.62 1017.76 1017.92 1018.17 1017.81 1017.57 1017.76 1017.77 1017.37 1015.76 1014.80 1014.31 1014.27 1013.97 1013.56 1013.12 1012.68 1012.36 1011.97
1007.67 1008.08 1008.69 1009.25 1009.47 1009.83 1010.13 1010.57 1011.40 1012.63 1013.60 1014.59 1015.26 1015.73 1016.22 1016.58 1016.79 1016.98 1017.28 1017.44 1017.61 1017.70 1017.80 1017.94 1017.90 1017.96 1018.08 1018.35 1018.36 1018.24 1018.05 1017.75 1017.56 1017.47 1015.51 1014.54 1014.11 1013.68 1013.21 1012.75 1012.44 1012.04 1011.64
1007.94 1008.32 1009.02 1009.59 1009.95 1010.24 1010.66 1011.23 1011.71 1012.79 1014.00 1014.89 1015.67 1016.17 1016.78 1017.00 1017.21 1017.43 1017.53 1017.68 1017.87 1018.01 1018.04 1018.10 1018.09 1018.16 1018.32 1018.32 1018.34 1018.42 1018.33 1018.23 1017.92 1017.65 1016.56 1015.35 1014.41 1013.29 1012.90 1012.48 1012.02 1011.65 1011.21
Thickness
5757 5760 5759 5757 5755 5752 5749 5744 5741 5738 5737 5736 5735 5734 5733 5731 5730 5730 5728 5727 5726 5725 5727 5727 5727 5728 5726 5724 5724 5721 5721 5721 5718 5717 5716 5715 5716 5716 5717 5716 5716 5714 5714
5764 5759 5757 5754 5751 5748 5746 5742 5739 5736 5734 5733 5731 5730 5729 5729 5727 5725 5724 5724 5724 5723 5723 5723 5722 5721 5721 5720 5718 5718 5717 5717 5716 5714 5714 5714 5714 5713 5714 5714 5713 5711 5712
5759 5756 5754 5751 5748 5745 5742 5740 5737 5734 5731 5730 5728 5727 5727 5726 5724 5723 5723 5722 5722 5720 5719 5717 5717 5715 5716 5715 5713 5713 5713 5712 5712 5711 5711 5710 5711 5711 5713 5712 5710 5710 5709
5756 5753 5750 5747 5744 5742 5738 5735 5733 5733 5729 5727 5726 5724 5725 5724 5723 5721 5719 5718 5716 5715 5714 5714 5713 5710 5711 5711 5710 5709 5708 5708 5708 5708 5707 5707 5707 5707 5710 5709 5709 5708 5707
5752 5750 5748 5745 5741 5740 5736 5733 5731 5729 5727 5724 5723 5722 5722 5723 5720 5718 5715 5714 5711 5710 5711 5711 5710 5708 5706 5707 5706 5705 5704 5703 5704 5704 5702 5702 5702 5703 5704 5707 5706 5705 5703
5747 5747 5744 5742 5738 5735 5734 5731 5730 5727 5724 5721 5720 5719 5719 5719 5718 5715 5713 5711 5709 5706 5706 5708 5707 5707 5704 5703 5703 5702 5701 5700 5698 5698 5699 5697 5698 5698 5699 5700 5702 5701 5701
5742 5743 5741 5738 5735 5732 5729 5728 5728 5724 5722 5719 5716 5715 5716 5716 5716 5714 5711 5709 5706 5704 5704 5705 5703 5703 5701 5700 5700 5699 5697 5696 5695 5694 5694 5693 5694 5695 5697 5697 5697 5699 5698
5739 5738 5737 5734 5732 5729 5727 5726 5724 5721 5719 5718 5714 5713 5714 5714 5713 5711 5708 5706 5703 5701 5702 5702 5700 5699 5697 5696 5696 5696 5694 5692 5691 5690 5690 5690 5691 5692 5693 5694 5694 5693 5694
5735 5734 5733 5731 5729 5726 5723 5722 5721 5719 5717 5716 5711 5712 5711 5710 5708 5707 5704 5702 5699 5698 5698 5698 5696 5695 5694 5692 5691 5691 5690 5688 5687 5686 5687 5687 5687 5688 5689 5689 5689 5690 5690
5730 5729 5728 5727 5724 5722 5720 5719 5717 5715 5715 5713 5710 5708 5708 5706 5704 5702 5701 5699 5697 5694 5694 5693 5692 5692 5690 5688 5687 5686 5685 5685 5683 5683 5683 5684 5684 5684 5685 5685 5684 5685 5684
5723 5724 5724 5723 5721 5718 5716 5715 5713 5712 5710 5710 5709 5704 5704 5701 5700 5697 5697 5695 5694 5691 5691 5690 5689 5688 5686 5684 5684 5683 5681 5680 5679 5678 5679 5679 5679 5680 5680 5680 5679 5679 5678
5718 5721 5720 5720 5717 5715 5712 5711 5710 5707 5706 5706 5704 5702 5699 5697 5697 5695 5694 5692 5691 5689 5689 5687 5685 5684 5682 5680 5681 5679 5677 5676 5674 5674 5674 5673 5673 5674 5675 5675 5673 5671 5672
5720 5718 5717 5717 5715 5711 5708 5706 5705 5703 5704 5702 5702 5698 5695 5695 5692 5689 5690 5689 5687 5686 5683 5682 5680 5678 5676 5675 5675 5673 5672 5670 5668 5667 5666 5665 5665 5665 5666 5666 5665 5665 5666
5716 5719 5717 5715 5712 5708 5705 5703 5701 5700 5699 5699 5696 5694 5692 5690 5687 5685 5683 5683 5682 5681 5679 5677 5675 5673 5671 5670 5668 5666 5663 5661 5660 5658 5657 5656 5655 5656 5656 5657 5657 5657 5658
5713 5716 5716 5712 5711 5706 5703 5701 5699 5698 5697 5695 5692 5691 5688 5684 5682 5680 5678 5677 5676 5677 5674 5671 5668 5664 5662 5660 5658 5655 5653 5652 5650 5648 5647 5646 5646 5647 5648 5649 5649 5649 5649
5715 5717 5717 5713 5710 5706 5704 5702 5700 5697 5695 5691 5690 5688 5683 5680 5678 5674 5672 5671 5668 5668 5664 5659 5656 5655 5652 5650 5649 5647 5644 5642 5641 5640 5638 5637 5636 5636 5637 5639 5638 5639 5638
5715 5716 5715 5714 5710 5705 5704 5701 5698 5695 5690 5688 5686 5684 5678 5675 5672 5670 5665 5660 5660 5658 5654 5648 5645 5644 5643 5641 5639 5639 5636 5635 5633 5631 5629 5628 5626 5625 5625 5625 5624 5624 5625
5709 5711 5713 5714 5707 5703 5701 5697 5694 5690 5687 5684 5678 5678 5671 5669 5667 5663 5656 5653 5650 5649 5644 5638 5637 5636 5633 5631 5629 5629 5627 5626 5623 5621 5619 5617 5616 5613 5612 5611 5610 5609 5609
5702 5704 5704 5705 5704 5699 5696 5692 5687 5684 5680 5675 5671 5670 5666 5661 5659 5651 5644 5643 5642 5640 5635 5630 5627 5624 5620 5619 5620 5619 5617 5615 5613 5611 5608 5607 5605 5602 5600 5598 5596 5595 5595
5693 5697 5699 5697 5696 5693 5688 5684 5678 5673 5669 5664 5661 5658 5655 5652 5649 5639 5635 5634 5634 5630 5624 5619 5615 5611 5608 5606 5609 5609 5608 5606 5604 5600 5598 5596 5593 5590 5588 5585 5583 5581 5580
5685 5688 5689 5688 5685 5687 5681 5676 5669 5663 5659 5654 5652 5647 5647 5642 5636 5630 5627 5624 5622 5618 5611 5606 5602 5597 5595 5594 5595 5596 5598 5596 5592 5590 5587 5583 5580 5577 5573 5571 5569 5567 5566
5678 5680 5680 5680 5679 5679 5675 5670 5666 5658 5650 5646 5641 5639 5637 5631 5625 5619 5615 5612 5609 5604 5599 5593 5588 5583 5580 5579 5575 5574 5576 5579 5581 5583 5577 5572 5568 5563 5559 5555 5552 5549 5547
5672 5673 5674 5673 5671 5669 5668 5663 5655 5649 5641 5637 5631 5629 5624 5620 5614 5609 5605 5601 5596 5592 5585 5581 5577 5572 5566 5564 5562 5557 5553 5553 5557 5569 5566 5558 5554 5547 5543 5540 5536 5533 5529
5666 5666 5666 5665 5663 5661 5660 5657 5655 5648 5638 5626 5623 5618 5613 5609 5603 5598 5593 5588 5584 5579 5574 5569 5566 5561 5555 5549 5546 5544 5537 5532 5529 5540 5551 5549 5540 5536 5531 5528 5524 5519 5515
5658 5658 5656 5654 5654 5653 5652 5650 5644 5635 5628 5619 5613 5608 5602 5596 5591 5586 5581 5577 5572 5567 5562 5556 5552 5547 5543 5536 5531 5527 5521 5516 5510 5504 5521 5526 5525 5520 5518 5515 5510 5505 5500
5649 5650 5648 5646 5644 5643 5642 5638 5636 5627 5618 5611 5603 5597 5589 5584 5580 5575 5570 5566 5560 5555 5551 5545 5541 5536 5529 5523 5517 5510 5504 5499 5495 5488 5492 5497 5498 5507 5502 5500 5494 5487 5480